Flag for Germany Weather past 2 weeks in Neunkirchen (Saar), Saarland, Germany

Now
43 °F

Passing clouds.


Feels Like: 34 °F
Forecast: 36 / 44 °F
Wind: 21 mph from West

Location: Saarbruecken / Ensheim

Current Time: Mar 31, 2015 at 11:23:00 PM

Latest Report: Mar 31, 2015 at 10:50 PM


Visibility: N/A

Pressure: 29.92 "Hg

Humidity: 71%

Dew point: 34 °F

Location of Neunkirchen (Saar)Location

Historic Weather in Neunkirchen (Saar) — Graph

°F

Neunkirchen (Saar) temperature yesterday

Maximum temperature yesterday: 50 °F (at 3:20 PM)
Minimum temperature yesterday: 43 °F (at 12:20 PM)
Average temperature yesterday: 46 °F

Past Weeks' High & Low Weather Summary

 TemperatureHumidityPressure
High64 °F (Mar 18, 2:20 PM)100% (Mar 21, 8:50 AM)30.30 "Hg (Mar 21, 8:50 AM)
Low32 °F (Mar 21, 6:20 AM)32% (Mar 18, 3:50 PM)29.53 "Hg (Mar 29, 9:50 PM)
Average45 °F74%29.97 "Hg
* Reported Mar 16 9:20 PM — Mar 31 10:20 PM, Neunkirchen (Saar), Weather by CustomWeather, © 2015

Note: Actual official high and low records may vary slightly from our data, if they occured in-between our weather recording intervals... More about our weather records

Advertising

Neunkirchen (Saar) weather history for previous 24 hours

 ConditionsComfort  
Time TempWeatherWind HumidityBarometerVisibility
10:20 PM
Tue, Mar 31
43 °FPassing clouds.18 mph76%29.92 "HgN/A
9:50 PM41 °FPassing clouds.14 mph87%29.92 "HgN/A
9:20 PM41 °FPassing clouds.6 mph81%29.92 "HgN/A
8:50 PM41 °FScattered clouds.7 mph81%29.89 "HgN/A
8:20 PM41 °FScattered clouds.10 mph81%29.89 "HgN/A
7:50 PM41 °FScattered clouds.13 mph87%29.89 "HgN/A
7:20 PM41 °FSprinkles. Scattered clouds.14 mph87%29.89 "HgN/A
6:50 PM43 °FSprinkles. Scattered clouds.23 mph81%29.89 "HgN/A
6:20 PM41 °FScattered clouds.17 mph93%29.86 "HgN/A
5:50 PM41 °FSprinkles. Partly sunny.22 mph87%29.86 "HgN/A
5:20 PM41 °FSprinkles. Partly sunny.20 mph87%29.86 "HgN/A
4:50 PM41 °FSnow flurries. Partly sunny.32 mph81%29.83 "HgN/A
4:20 PM50 °FPartly sunny.30 mph58%29.77 "HgN/A
3:50 PM52 °FScattered clouds.35 mph54%29.77 "HgN/A
3:20 PM54 °FScattered clouds.29 mph51%29.74 "HgN/A
2:50 PM54 °FScattered clouds.32 mph54%29.74 "HgN/A
2:20 PM52 °FScattered clouds.31 mph62%29.71 "HgN/A
1:50 PM50 °FPartly sunny.28 mph71%29.71 "HgN/A
1:20 PM52 °FBroken clouds.39 mph62%29.71 "HgN/A
12:50 PM52 °FBroken clouds.32 mph72%29.68 "HgN/A
12:20 PM50 °FLight rain. Broken clouds.32 mph76%29.68 "HgN/A
11:50 AM50 °FBroken clouds.33 mph76%29.65 "HgN/A
11:20 AM50 °FPartly sunny.36 mph76%29.65 "HgN/A
10:50 AM50 °FPartly sunny.39 mph76%29.62 "HgN/A
10:20 AM50 °FBroken clouds.36 mph88%29.62 "HgN/A
9:50 AM50 °FLight rain. Broken clouds.33 mph88%29.62 "Hg4 mi
9:20 AM50 °FLight rain. Broken clouds.30 mph88%29.59 "Hg4 mi
8:50 AM48 °FLight rain. Broken clouds.29 mph94%29.59 "HgN/A
8:20 AM50 °FLight rain. Broken clouds.30 mph88%29.59 "HgN/A
7:50 AM50 °FLight rain. Partly cloudy.31 mph82%29.59 "Hg5 mi
7:20 AM52 °FPartly cloudy.32 mph77%29.59 "HgN/A
6:50 AM52 °FPassing clouds.35 mph82%29.56 "HgN/A
6:20 AM52 °FPassing clouds.30 mph88%29.59 "HgN/A
5:50 AM52 °FLight rain. Passing clouds.31 mph88%29.59 "HgN/A
5:20 AM52 °FLight rain. Partly cloudy.30 mph88%29.62 "HgN/A
4:50 AM50 °FLight rain. Passing clouds.26 mph94%29.62 "Hg5 mi
4:20 AM50 °FLight rain. Passing clouds.25 mph94%29.62 "Hg5 mi
3:50 AM48 °FLight rain. Fog.23 mph94%29.65 "Hg2 mi
3:20 AM46 °FLight rain. Fog.22 mph93%29.68 "Hg2 mi
2:50 AM46 °FLight rain. Fog.23 mph93%29.71 "Hg3 mi
2:20 AM45 °FLight rain. Passing clouds.20 mph93%29.74 "Hg5 mi
1:20 AM45 °FPartly cloudy.17 mph81%29.80 "HgN/A
12:50 AM45 °FLight rain. Passing clouds.15 mph76%29.83 "HgN/A
12:20 AM45 °FLight rain. Mostly cloudy.14 mph76%29.83 "HgN/A
11:50 PM
Mon, Mar 30
45 °FLight rain. Clear.16 mph66%29.86 "HgN/A
11:20 PM45 °FOvercast.12 mph66%29.86 "HgN/A
Weather by CustomWeather, © 2015

See weather overviewHow to use our weather pages